Vernal, UT

4:01 AM MST on November 17, 2019 (GMT -0700)
Vernal

Weather History for KVEL - October, 2019

Change the Weather History Date:

Monday, October 21, 2019

  Actual Average Record
Temperature  
Mean Temperature 40 °F 46 °F  
Max Temperature 53 °F 59 °F 75 °F (2003)
Min Temperature 28 °F 34 °F 13 °F (1958)
Degree Days  
Heating Degree Days 24 19  
Month to date heating degree days 411 313  
Since 1 July heating degree days 525 495  
Cooling Degree Days 0 0  
Month to date cooling degree days 0 0  
Year to date cooling degree days 671 511  
Moisture  
Dew Point 18 °F    
Average Humidity 43    
Maximum Humidity 59    
Minimum Humidity 24    
Precipitation  
Precipitation T in 0.05 in 1.36 in (2004)
Month to date precipitation 0.03 1.00  
Year to date precipitation 8.65 7.69  
Sea Level Pressure  
Sea Level Pressure 30.15 in    
Wind  
Wind Speed 3 mph ()    
Max Wind Speed 9 mph    
Max Gust Speed 14 mph    
Visibility 10.0 miles    
Events      
T = Trace of Precipitation, MM = Missing Value Source: Averaged Metar Reports

Daily Weather History Graph

Daily Weather History Graph

Search for Another Location

Airport or City:

Astronomy

Oct. 21, 2019 Rise Set
Actual Time 7:35 AM MDT 6:29 PM MDT
Civil Twilight 7:07 AM MDT 6:57 PM MDT
Nautical Twilight 6:35 AM MDT 7:28 PM MDT
Astronomical Twilight 6:04 AM MDT 8:00 PM MDT
Moon No Moon Rise 2:56 PM MDT (10/21)
Length of Visible Light 11h 49m
Length of Day
10h 54m
Waning Gibbous, 47% of the Moon is Illuminated
Oct 21
Waning Gibbous
Oct 27
New
Nov 4
First Quarter
Nov 12
Full
Nov 19
Last Quarter

Hourly Weather History & Observations

Time (MDT) Temp. Windchill Dew Point Humidity Pressure Visibility Wind Dir Wind Speed Gust Speed Precip Events Conditions
12:53 AM 30.9 °F 27.5 °F 12.9 °F 47% 30.07 in 10.0 mi NNE 3.5 mph - N/A   Partly Cloudy
1:53 AM 28.9 °F 25.2 °F 12.9 °F 51% 30.08 in 10.0 mi North 3.5 mph - N/A   Mostly Cloudy
2:53 AM 28.9 °F - 15.1 °F 56% 30.06 in 10.0 mi Calm Calm - N/A   Overcast
3:53 AM 32.0 °F 27.5 °F 15.1 °F 50% 30.05 in 10.0 mi West 4.6 mph - N/A   Overcast
4:53 AM 33.1 °F - 16.0 °F 50% 30.05 in 10.0 mi Calm Calm - 0.00 in   Overcast
5:53 AM 34.0 °F - 18.0 °F 52% 30.06 in 10.0 mi Calm Calm - N/A   Overcast
6:53 AM 33.1 °F - 19.0 °F 56% 30.08 in 10.0 mi Calm Calm - N/A   Overcast
7:53 AM 33.1 °F 28.7 °F 19.9 °F 59% 30.12 in 10.0 mi East 4.6 mph - N/A   Clear
8:53 AM 37.0 °F 34.5 °F 21.9 °F 54% 30.13 in 10.0 mi NE 3.5 mph - N/A   Clear
9:53 AM 39.0 °F 34.8 °F 21.9 °F 50% 30.17 in 10.0 mi East 5.8 mph - N/A   Clear
10:53 AM 41.0 °F 38.0 °F 19.9 °F 43% 30.18 in 10.0 mi Variable 4.6 mph - N/A   Clear
11:53 AM 44.1 °F 40.1 °F 19.0 °F 37% 30.17 in 10.0 mi SE 6.9 mph - N/A   Clear
12:53 PM 46.9 °F - 19.0 °F 33% 30.16 in 10.0 mi SE 5.8 mph - N/A   Clear
1:53 PM 48.9 °F - 18.0 °F 29% 30.14 in 10.0 mi Calm Calm - N/A   Clear
2:53 PM 51.1 °F - 19.0 °F 28% 30.12 in 10.0 mi ESE 4.6 mph - N/A   Scattered Clouds
3:53 PM 53.1 °F - 18.0 °F 25% 30.11 in 10.0 mi East 9.2 mph - N/A   Clear
4:53 PM 53.1 °F - 17.1 °F 24% 30.12 in 10.0 mi East 6.9 mph - N/A   Clear
5:53 PM 51.1 °F - 17.1 °F 26% 30.14 in 10.0 mi East 4.6 mph - N/A   Clear
6:53 PM 46.9 °F - 17.1 °F 30% 30.18 in 10.0 mi Calm Calm - N/A   Clear
7:53 PM 37.0 °F 32.4 °F 19.0 °F 48% 30.25 in 10.0 mi Variable 5.8 mph - N/A   Clear
8:53 PM 39.0 °F 36.8 °F 18.0 °F 43% 30.23 in 10.0 mi WSW 3.5 mph - N/A   Clear
9:53 PM 37.0 °F 32.4 °F 18.0 °F 46% 30.27 in 10.0 mi West 5.8 mph - N/A   Clear
10:53 PM 34.0 °F 29.8 °F 18.0 °F 52% 30.29 in 10.0 mi NNW 4.6 mph - N/A   Clear
11:53 PM 37.0 °F 33.3 °F 19.0 °F 48% 30.28 in 10.0 mi NW 4.6 mph - N/A   Clear